Date String (YYYY-MM-DD hh:mm:ss) UTC,Instrument flags,Ambient pressure (hPa),Sample flow (lpm),Bypass flow (lpm),Sample temperature (°C),Ambient temperature (°C),ASC tube jacket temperature (°C),LED temperature (°C),Box temperature (°C),Sample RH (%),Span deviation,Mass concentration (μg/m³),Mass concentration (μg/m³),Mass concentration (μg/m³)
DateTimeUTC,F1_M11,P_M11,Q1_M11,Q2_M11,T1_M11,T2_M11,T3_M11,T4_M11,T5_M11,U1_M11,ZSPAN_M11,X0_M11,X2_M11,X1_M11
2022-08-08 20:00:00,,0831.0,5.00,0.00,31.1,28.4,00.0,39.5,32.1,33.5,0000.0,0010.60,0004.35,0003.85
2022-08-08 20:01:00,,0831.0,5.00,0.00,31.0,28.5,00.0,39.5,32.1,33.3,0000.0,0010.65,0004.31,0003.81
2022-08-08 20:02:00,,0831.0,5.01,0.00,31.0,28.2,00.0,39.5,32.0,33.1,0000.0,0010.30,0004.28,0003.80
2022-08-08 20:03:00,,0830.9,4.99,0.00,30.9,27.6,00.0,39.4,31.8,33.4,0000.0,0010.34,0004.26,0003.79
2022-08-08 20:04:00,,0830.9,5.02,0.00,30.8,27.4,00.0,39.4,31.8,33.0,0000.0,0010.70,0004.27,0003.79
2022-08-08 20:05:00,,0830.9,4.99,0.00,30.7,27.5,00.0,39.3,31.7,33.1,0000.0,0010.01,0004.23,0003.77
2022-08-08 20:06:00,,0830.9,5.01,0.00,30.6,27.6,00.0,39.3,31.7,33.5,0000.0,0009.00,0004.22,0003.76
2022-08-08 20:07:00,,0830.9,4.99,0.00,30.6,27.8,00.0,39.3,31.7,33.0,0000.0,0008.77,0004.21,0003.73
2022-08-08 20:08:00,,0830.9,5.00,0.00,30.6,28.0,00.0,39.3,31.8,32.6,0000.0,0008.75,0004.18,0003.71
2022-08-08 20:09:00,,0830.9,5.01,0.00,30.6,28.2,00.0,39.2,31.9,32.2,0000.0,0008.65,0004.14,0003.69
2022-08-08 20:10:00,,0831.0,5.00,0.00,30.6,28.3,00.0,39.2,31.9,32.3,0000.0,0009.03,0004.10,0003.68
2022-08-08 20:11:00,,0830.9,4.99,0.00,30.6,28.5,00.0,39.2,32.0,33.5,0000.0,0008.50,0004.05,0003.64
2022-08-08 20:12:00,,0830.9,4.99,0.00,30.6,28.5,00.0,39.2,31.9,33.9,0000.0,0008.43,0004.02,0003.62
2022-08-08 20:13:00,,0830.8,5.01,0.00,30.5,27.9,00.0,39.2,31.8,33.5,0000.0,0009.28,0004.01,0003.59
2022-08-08 20:14:00,,0830.8,4.99,0.00,30.5,27.5,00.0,39.1,31.7,32.7,0000.0,0009.51,0003.97,0003.55
2022-08-08 20:15:00,,0830.8,5.01,0.00,30.4,27.5,00.0,39.1,31.7,32.9,0000.0,0009.48,0003.90,0003.51
2022-08-08 20:16:00,,0830.7,4.99,0.00,30.3,27.5,00.0,39.0,31.6,33.2,0000.0,0009.39,0003.86,0003.48
2022-08-08 20:17:00,,0830.8,5.00,0.00,30.3,27.7,00.0,39.0,31.6,31.2,0000.0,0009.17,0003.78,0003.43
2022-08-08 20:18:00,,0830.8,5.01,0.00,30.2,27.9,00.0,39.0,31.7,31.0,0000.0,0009.07,0003.73,0003.40
2022-08-08 20:19:00,,0830.8,5.00,0.00,30.2,28.0,00.0,39.0,31.8,31.5,0000.0,0008.95,0003.69,0003.36
2022-08-08 20:20:00,,0830.7,5.01,0.00,30.2,28.2,00.0,39.0,31.8,30.6,0000.0,0008.94,0003.67,0003.33
2022-08-08 20:21:00,,0830.7,5.00,0.00,30.2,28.4,00.0,39.0,31.9,30.8,0000.0,0008.50,0003.64,0003.31
2022-08-08 20:22:00,,0830.6,5.00,0.00,30.3,28.4,00.0,39.0,31.9,31.0,0000.0,0008.57,0003.67,0003.31
2022-08-08 20:23:00,,0830.6,5.00,0.00,30.2,28.0,00.0,38.9,31.7,31.7,0000.0,0008.34,0003.69,0003.32
2022-08-08 20:24:00,,0830.6,5.00,0.00,30.2,27.5,00.0,38.9,31.6,30.4,0000.0,0007.28,0003.66,0003.32
2022-08-08 20:25:00,,0830.6,4.99,0.00,30.1,27.4,00.0,38.8,31.5,31.0,0000.0,0006.75,0003.63,0003.30
2022-08-08 20:26:00,,0830.6,5.00,0.00,30.0,27.4,00.0,38.8,31.4,31.6,0000.0,0005.82,0003.64,0003.29
2022-08-08 20:27:00,,0830.6,5.00,0.00,29.9,27.6,00.0,38.8,31.4,32.0,0000.0,0005.91,0003.64,0003.28
2022-08-08 20:28:00,,0830.6,5.00,0.00,29.9,27.8,00.0,38.8,31.5,31.6,0000.0,0006.20,0003.67,0003.29
2022-08-08 20:29:00,,0830.6,5.00,0.00,30.0,27.9,00.0,38.7,31.6,32.5,0000.0,0006.27,0003.70,0003.33
2022-08-08 20:30:00,,0830.6,5.00,0.00,30.0,28.1,00.0,38.7,31.7,31.9,0000.0,0006.20,0003.70,0003.35
2022-08-08 20:31:00,,0830.6,5.01,0.00,30.0,28.3,00.0,38.8,31.7,32.2,0000.0,0006.19,0003.70,0003.37
2022-08-08 20:32:00,,0830.6,5.01,0.00,30.0,28.4,00.0,38.8,31.8,32.5,0000.0,0006.21,0003.72,0003.40
2022-08-08 20:33:00,,0830.6,5.00,0.00,30.0,27.9,00.0,38.7,31.6,32.4,0000.0,0006.20,0003.73,0003.41
2022-08-08 20:34:00,,0830.6,5.01,0.00,29.9,27.4,00.0,38.7,31.4,32.1,0000.0,0005.95,0003.73,0003.43
2022-08-08 20:35:00,,0830.6,5.00,0.00,29.9,27.2,00.0,38.6,31.4,31.6,0000.0,0006.14,0003.77,0003.44
2022-08-08 20:36:00,,0830.6,4.99,0.00,29.8,27.3,00.0,38.6,31.3,31.7,0000.0,0006.41,0003.81,0003.48
2022-08-08 20:37:00,,0830.6,5.00,0.00,29.7,27.5,00.0,38.6,31.4,32.3,0000.0,0006.50,0003.83,0003.50
2022-08-08 20:38:00,,0830.6,5.00,0.00,29.7,27.7,00.0,38.6,31.4,33.3,0000.0,0006.66,0003.87,0003.52
2022-08-08 20:39:00,,0830.6,5.00,0.00,29.8,27.9,00.0,38.6,31.5,34.0,0000.0,0006.80,0003.93,0003.56
2022-08-08 20:40:00,,0830.6,5.00,0.00,29.8,28.0,00.0,38.6,31.6,33.6,0000.0,0007.97,0004.01,0003.60
2022-08-08 20:41:00,,0830.6,5.00,0.00,29.8,28.2,00.0,38.6,31.6,33.2,0000.0,0008.26,0004.07,0003.63
2022-08-08 20:42:00,,0830.6,5.00,0.00,29.8,28.4,00.0,38.6,31.7,33.4,0000.0,0008.34,0004.11,0003.67
2022-08-08 20:43:00,,0830.6,5.01,0.00,29.8,28.0,00.0,38.6,31.6,33.3,0000.0,0008.41,0004.16,0003.70
2022-08-08 20:44:00,,0830.7,5.01,0.00,29.8,27.4,00.0,38.5,31.4,33.5,0000.0,0008.53,0004.20,0003.72
2022-08-08 20:45:00,,0830.6,5.00,0.00,29.7,27.3,00.0,38.5,31.3,33.4,0000.0,0009.06,0004.22,0003.73
2022-08-08 20:46:00,,0830.6,4.99,0.00,29.7,27.3,00.0,38.5,31.2,34.0,0000.0,0009.70,0004.26,0003.74
2022-08-08 20:47:00,,0830.6,5.02,0.00,29.6,27.4,00.0,38.4,31.2,34.1,0000.0,0010.00,0004.28,0003.76
2022-08-08 20:48:00,,0830.5,5.00,0.00,29.6,27.6,00.0,38.4,31.3,34.0,0000.0,0009.96,0004.30,0003.77
2022-08-08 20:49:00,,0830.5,5.00,0.00,29.6,27.8,00.0,38.4,31.4,34.7,0000.0,0009.84,0004.28,0003.79
2022-08-08 20:50:00,,0830.5,5.01,0.00,29.7,28.0,00.0,38.4,31.5,35.2,0000.0,0009.93,0004.26,0003.79
2022-08-08 20:51:00,,0830.4,4.99,0.00,29.9,28.2,00.0,38.4,31.7,35.1,0000.0,0009.05,0004.19,0003.78
2022-08-08 20:52:00,,0830.4,5.01,0.00,30.2,28.4,00.0,38.5,31.9,35.6,0000.0,0008.76,0004.18,0003.78
2022-08-08 20:53:00,,0830.4,5.00,0.00,30.6,28.1,00.0,38.5,31.9,35.1,0000.0,0008.78,0004.19,0003.77
2022-08-08 20:54:00,,0830.4,5.01,0.00,30.8,27.5,00.0,38.5,31.9,34.0,0000.0,0008.84,0004.21,0003.77
2022-08-08 20:55:00,,0830.4,4.99,0.00,31.0,27.3,00.0,38.5,31.7,32.7,0000.0,0008.84,0004.22,0003.78
2022-08-08 20:56:00,,0830.4,5.01,0.00,31.0,27.3,00.0,38.6,31.6,33.0,0000.0,0008.35,0004.24,0003.79
2022-08-08 20:57:00,,0830.4,4.99,0.00,30.9,27.5,00.0,38.7,31.6,32.5,0000.0,0008.19,0004.25,0003.80
2022-08-08 20:58:00,,0830.4,5.01,0.00,30.9,27.7,00.0,38.7,31.6,33.0,0000.0,0009.02,0004.25,0003.79
2022-08-08 20:59:00,,0830.5,4.99,0.00,30.9,27.9,00.0,38.8,31.7,32.3,0000.0,0009.04,0004.25,0003.81
